When you browse on this site, cookies collect data to enhance your experience and personalize the content and advertising you see.
Visit our Privacy Policy to learn more. By continuing to use the site, you agree to this use of cookies and data.
  • In Romania
  • List of Countries
  • For 7 days
  • Water Temperature
  • Weather Map
  • Weather Widgets
  • user-avatar
    Login

    Hourly Weather Tottori

    Today, 26 January, Sunday

    Time Temperature Precipitation Wind Pressure Humidity
    00:00 +4°C° 0.1 mm 1 mps 737 mmHg 88%
    01:00 +4°C° 0.1 mm 1 mps 736 mmHg 90%
    02:00 +3°C° 0.1 mm 0 mps 736 mmHg 91%
    03:00 +3°C° 0 mm 0 mps 736 mmHg 92%
    04:00 +4°C° 0 mm 1 mps 736 mmHg 90%
    05:00 +4°C° 0 mm 1 mps 735 mmHg 88%
    06:00 +4°C° 0 mm 1 mps 735 mmHg 87%
    07:00 +4°C° 0 mm 1 mps 736 mmHg 85%
    08:00 +5°C° 0 mm 1 mps 736 mmHg 82%
    09:00 +6°C° 0 mm 1 mps 736 mmHg 79%
    10:00 +6°C° 0 mm 2 mps 736 mmHg 74%
    11:00 +7°C° 0 mm 2 mps 736 mmHg 68%
    12:00 +8°C° 0 mm 3 mps 736 mmHg 63%
    13:00 +8°C° 0 mm 3 mps 736 mmHg 61%
    14:00 +8°C° 0 mm 3 mps 735 mmHg 60%
    15:00 +8°C° 0 mm 3 mps 735 mmHg 59%
    16:00 +7°C° 0 mm 3 mps 735 mmHg 66%
    17:00 +5°C° 0 mm 3 mps 735 mmHg 73%
    18:00 +4°C° 0 mm 3 mps 736 mmHg 80%
    19:00 +4°C° 0 mm 3 mps 736 mmHg 82%
    20:00 +3°C° 0 mm 3 mps 736 mmHg 85%
    21:00 +3°C° 0 mm 3 mps 736 mmHg 87%
    22:00 +3°C° 0 mm 3 mps 736 mmHg 87%
    23:00 +3°C° 0 mm 3 mps 735 mmHg 87%

    Tomorrow, 27 January, Monday

    Time Temperature Precipitation Wind Pressure Humidity
    00:00 +3°C° 0 mm 4 mps 735 mmHg 88%
    01:00 +3°C° 0 mm 4 mps 734 mmHg 88%
    02:00 +3°C° 0 mm 4 mps 734 mmHg 88%
    03:00 +3°C° 0 mm 4 mps 733 mmHg 89%
    04:00 +3°C° 0.2 mm 3 mps 733 mmHg 89%
    05:00 +2°C° 0.2 mm 3 mps 733 mmHg 90%
    06:00 +2°C° 0.2 mm 3 mps 733 mmHg 91%
    07:00 +2°C° 0.7 mm 3 mps 732 mmHg 91%
    08:00 +3°C° 0.7 mm 3 mps 732 mmHg 91%
    09:00 +4°C° 0.7 mm 2 mps 731 mmHg 91%
    10:00 +3°C° 1 mm 3 mps 730 mmHg 92%
    11:00 +3°C° 1 mm 3 mps 730 mmHg 93%
    12:00 +4°C° 1 mm 3 mps 729 mmHg 93%
    13:00 +4°C° 1.7 mm 3 mps 728 mmHg 94%
    14:00 +4°C° 1.7 mm 4 mps 727 mmHg 94%
    15:00 +3°C° 1.7 mm 4 mps 726 mmHg 94%
    16:00 +3°C° 0.2 mm 4 mps 726 mmHg 94%
    17:00 +4°C° 0.2 mm 4 mps 725 mmHg 93%
    18:00 +4°C° 0.2 mm 4 mps 725 mmHg 93%
    19:00 +4°C° 0.3 mm 4 mps 724 mmHg 92%
    20:00 +4°C° 0.3 mm 4 mps 723 mmHg 91%
    21:00 +4°C° 0.3 mm 4 mps 723 mmHg 91%
    22:00 +4°C° 0.2 mm 4 mps 722 mmHg 90%
    23:00 +5°C° 0.2 mm 4 mps 722 mmHg 90%

    Day after tomorrow, 28 January, Tuesday

    Time Temperature Precipitation Wind Pressure Humidity
    00:00 +5°C° 0.2 mm 3 mps 721 mmHg 90%
    01:00 +5°C° 1.5 mm 4 mps 721 mmHg 90%
    02:00 +5°C° 1.5 mm 5 mps 720 mmHg 91%
    03:00 +5°C° 1.5 mm 5 mps 720 mmHg 91%
    04:00 +6°C° 0.4 mm 5 mps 720 mmHg 92%
    05:00 +6°C° 0.4 mm 4 mps 720 mmHg 92%
    06:00 +6°C° 0.4 mm 4 mps 720 mmHg 93%
    07:00 +7°C° 0.3 mm 3 mps 720 mmHg 94%
    08:00 +8°C° 0.3 mm 3 mps 720 mmHg 95%
    09:00 +8°C° 0.3 mm 2 mps 721 mmHg 96%
    10:00 +8°C° 0 mm 3 mps 721 mmHg 94%
    11:00 +9°C° 0 mm 3 mps 721 mmHg 91%
    12:00 +10°C° 0 mm 3 mps 721 mmHg 88%
    13:00 +10°C° 0 mm 3 mps 721 mmHg 88%
    14:00 +11°C° 0 mm 3 mps 721 mmHg 87%
    15:00 +11°C° 0 mm 3 mps 721 mmHg 87%
    16:00 +10°C° 0 mm 3 mps 721 mmHg 89%
    17:00 +9°C° 0 mm 3 mps 722 mmHg 90%
    18:00 +8°C° 0 mm 3 mps 722 mmHg 92%
    19:00 +8°C° 0 mm 2 mps 722 mmHg 93%
    20:00 +8°C° 0 mm 2 mps 723 mmHg 93%
    21:00 +7°C° 0 mm 2 mps 723 mmHg 93%
    22:00 +7°C° 0 mm 2 mps 723 mmHg 93%
    23:00 +7°C° 0 mm 2 mps 723 mmHg 94%

    29 January, Wednesday

    Time Temperature Precipitation Wind Pressure Humidity
    00:00 +6°C° 0 mm 2 mps 723 mmHg 94%
    01:00 +6°C° 0.1 mm 2 mps 723 mmHg 93%
    02:00 +6°C° 0.1 mm 2 mps 723 mmHg 93%
    03:00 +7°C° 0.1 mm 2 mps 724 mmHg 92%
    04:00 +6°C° 0.1 mm 2 mps 724 mmHg 92%
    05:00 +6°C° 0.1 mm 2 mps 724 mmHg 92%
    06:00 +6°C° 0.1 mm 2 mps 724 mmHg 92%
    07:00 +6°C° 0.1 mm 2 mps 724 mmHg 89%
    08:00 +7°C° 0.1 mm 2 mps 724 mmHg 85%
    09:00 +7°C° 0.1 mm 2 mps 725 mmHg 82%
    10:00 +8°C° 0.1 mm 2 mps 724 mmHg 81%
    11:00 +8°C° 0.1 mm 3 mps 724 mmHg 79%
    12:00 +8°C° 0.1 mm 3 mps 724 mmHg 77%
    13:00 +8°C° 0.2 mm 3 mps 724 mmHg 76%
    14:00 +7°C° 0.2 mm 4 mps 724 mmHg 75%
    15:00 +7°C° 0.2 mm 4 mps 723 mmHg 73%
    16:00 +6°C° 0.1 mm 4 mps 723 mmHg 78%
    17:00 +5°C° 0.1 mm 3 mps 723 mmHg 83%
    18:00 +3°C° 0.1 mm 3 mps 724 mmHg 87%
    19:00 +3°C° 0.1 mm 3 mps 724 mmHg 89%
    20:00 +4°C° 0.1 mm 2 mps 724 mmHg 90%
    21:00 +3°C° 0.1 mm 2 mps 724 mmHg 91%
    22:00 +3°C° 0.1 mm 2 mps 723 mmHg 92%
    23:00 +2°C° 0.1 mm 2 mps 723 mmHg 92%

    30 January, Thursday

    Time Temperature Precipitation Wind Pressure Humidity
    00:00 +2°C° 0.1 mm 2 mps 723 mmHg 92%
    01:00 +2°C° 0 mm 2 mps 722 mmHg 93%
    02:00 +1°C° 0 mm 2 mps 722 mmHg 94%
    03:00 +1°C° 0 mm 2 mps 722 mmHg 94%
    04:00 0°C° 0 mm 3 mps 721 mmHg 94%
    05:00 0°C° 0 mm 3 mps 721 mmHg 94%
    06:00 0°C° 0 mm 3 mps 720 mmHg 93%
    07:00 +1°C° 0.3 mm 3 mps 720 mmHg 93%
    08:00 +1°C° 0.3 mm 3 mps 720 mmHg 93%
    09:00 +1°C° 0.3 mm 4 mps 720 mmHg 93%
    10:00 +1°C° 0.2 mm 4 mps 719 mmHg 91%
    11:00 +1°C° 0.2 mm 5 mps 719 mmHg 89%
    12:00 +2°C° 0.2 mm 6 mps 718 mmHg 87%
    13:00 +2°C° 0.5 mm 6 mps 718 mmHg 88%
    14:00 +2°C° 0.5 mm 6 mps 717 mmHg 89%
    15:00 +2°C° 0.5 mm 6 mps 717 mmHg 91%
    16:00 +2°C° 2.4 mm 7 mps 717 mmHg 92%
    17:00 +2°C° 2.4 mm 7 mps 717 mmHg 93%
    18:00 +3°C° 2.4 mm 7 mps 717 mmHg 94%
    19:00 +3°C° 0.7 mm 7 mps 718 mmHg 93%
    20:00 +4°C° 0.7 mm 7 mps 718 mmHg 93%
    21:00 +4°C° 0.7 mm 7 mps 719 mmHg 92%
    22:00 +4°C° 0.5 mm 6 mps 720 mmHg 93%
    23:00 +3°C° 0.5 mm 6 mps 720 mmHg 93%

    31 January, Friday

    Time Temperature Precipitation Wind Pressure Humidity
    00:00 +3°C° 0.5 mm 5 mps 721 mmHg 93%
    01:00 +3°C° 1.4 mm 6 mps 722 mmHg 94%
    02:00 +3°C° 1.4 mm 6 mps 723 mmHg 95%
    03:00 +2°C° 1.4 mm 6 mps 723 mmHg 96%
    04:00 +2°C° 0.7 mm 6 mps 724 mmHg 96%
    05:00 +2°C° 0.7 mm 5 mps 725 mmHg 96%
    06:00 +1°C° 0.7 mm 5 mps 725 mmHg 96%
    07:00 +1°C° 0.5 mm 5 mps 726 mmHg 95%
    08:00 +1°C° 0.5 mm 5 mps 726 mmHg 95%
    09:00 +1°C° 0.5 mm 5 mps 727 mmHg 95%
    10:00 +1°C° 0.3 mm 5 mps 727 mmHg 93%
    11:00 +1°C° 0.3 mm 5 mps 728 mmHg 91%
    12:00 +1°C° 0.3 mm 5 mps 728 mmHg 90%
    13:00 +1°C° 0.3 mm 5 mps 728 mmHg 89%
    14:00 +1°C° 0.3 mm 5 mps 728 mmHg 88%
    15:00 +1°C° 0.3 mm 5 mps 728 mmHg 88%
    16:00 0°C° 0.2 mm 5 mps 729 mmHg 88%
    17:00 -1°C° 0.2 mm 4 mps 729 mmHg 88%
    18:00 -1°C° 0.2 mm 4 mps 729 mmHg 88%
    19:00 -1°C° 0.2 mm 4 mps 730 mmHg 91%
    20:00 0°C° 0.2 mm 3 mps 730 mmHg 93%
    21:00 0°C° 0.2 mm 3 mps 730 mmHg 95%
    22:00 0°C° 0.3 mm 3 mps 730 mmHg 95%
    23:00 0°C° 0.3 mm 3 mps 730 mmHg 95%
    Show more